Location: Tel Aviv
(32.0670°N, 34.7670°E)
Time: 03:41:26
(UTC+03:00)

Tiros 1 - Pass Details

Date: 23 January 2022
Orbit: 629 x 663 km, 48.4° (Epoch: 26 May)

Event Time Altitude Azimuth Distance (km) Brightness Sun altitude
Rises 22:34:00 0° 243° (WSW) 2,983 - -68.2°
Reaches altitude 10° 22:36:25 10° 248° (WSW) 2,073 - -68.6°
Maximum altitude 22:41:04 50° 324° (NW) 838 - -69.4°
Drops below altitude 10° 22:45:44 10° 41° (NE) 2,075 - -70.3°
Sets 22:48:09 0° 46° (NE) 2,985 - -70.7°
